Simultaneous Nadir Overpasses (SNOs) Predictions

Prediction of SNOs between AQUA and METOP-A Satellite Orbit:

Table of predicted SNOs for the next 14.0 days since TLE Epoch: 8/28/2021
Index Date (AQUA) Time (AQUA) Lat,Lon (AQUA) SZA (AQUA ) Date (METOP-A) Time (METOP-A) Lat,Lon (METOP-A) SZA (METOP-A ) Distance(km) Time Diff (sec)
1 08/28/2021 19:14:31 -77.66, 54.23 111.23 08/28/2021 19:13:41 -77.69, 54.25 111.19 3.53 50
2 08/28/2021 20:03:59 77.70,-138.31 68.84 08/28/2021 20:04:21 77.69,-138.41 68.83 2.64 22
3 08/31/2021 14:48:48 -77.69, 120.53 110.20 08/31/2021 14:48:02 -77.68, 120.52 110.20 1.70 46
4 08/31/2021 15:38:16 77.74, -72.04 69.87 08/31/2021 15:38:41 77.72, -71.97 69.84 3.19 25
5 09/03/2021 10:23:04 -77.69,-173.01 109.20 09/03/2021 10:22:22 -77.70,-173.02 109.17 1.91 42
6 09/03/2021 11:12:32 77.74, -5.60 70.88 09/03/2021 11:13:01 77.74, -5.53 70.87 1.63 29
7 09/06/2021 05:57:20 -77.68,-106.57 108.18 09/06/2021 05:56:42 -77.72,-106.58 108.13 4.43 38
8 09/06/2021 06:46:48 77.74, 60.81 71.91 09/06/2021 06:47:21 77.76, 60.90 71.91 2.43 33
9 09/09/2021 01:31:36 -77.74, -40.36 107.08 09/09/2021 01:31:02 -77.70, -40.34 107.10 3.80 34



Historial Predications of SNOs between AQUA and METOP-A
